Semipalatinsk Airport
UASS : now visible

Airfield :











YOU CAN JOIN US ON...

 
LOGIN :

Register | Disclaimer

   EN    FR    IT 

 









Legend :    VFR   Marginal VFR   IFR   Intensive IFR   Very Intensive IFR
Visi :
Ceiling :
>= 8 km
>= 3000ft
5 to 8 km
1000 to 3000 ft
1500m to 5 km
500 to 1000 ft
800 to 1500m
200 to 500 ft
< 800m
< 200 ft
Symbols :   Thunderstorms  Fog  Heavy snow  Heavy precipitations  Wind > 20 kt






- Airport Elevation : 761 ft
- IATA code : DLX


UASS - Semipalatinsk

CURRENT METAR :
  • 251230Z 18001MPS CAVOK M18/M20 Q1037 R26/49//39 NOSIG RMK QFE759/1012

EXPIRED METARs :
  • 251200Z 23001MPS CAVOK M17/M19 Q1037 R26/49//39 NOSIG RMK QFE759/1012
  • 251130Z 17002MPS CAVOK M17/M18 Q1037 R26/49//39 NOSIG RMK QFE759/1012

TAF TAF UASS
Valid from the 25 at 12:00 until the 25 at 21:00 UTC


251101Z 2512/2521 VRB02MPS CAVOK
TEMPO 2512/2515 5000 BR
UACC FIR / Asia



MET'MAP, your aeronautical weather chart ! - Copyright ORBIFLY December 2007 - Disclaimer

ORBIFLY MET'MAP TEAM :

Programming & Development : Alexandra Zaïnal
Concept & original design : Baudouin d'Aumeries
Assistance for programming : Marc-Olivier Méhu
Technical & hardware support : Manuel Goepfert

Contact : metmap@orbifly.com




SOURCES & CREDITS :

   NOAA       Earth
Advisory